Wind_Speed
32 39 47 63 55 50 46 39 45 46 39 34 41 46 41 36 35 38 41 41 43 41 33 33 27 30 27 29 29 24 24 25 27 32 34 30 28 29 31 31 31 29 31 31
38 51 71 41 43 42 45 44 48 42 38 36 38 42 40 39 41 42 41 42 39 38 35 27 24 29 29 31 26 21 23 25 29 32 28 26 25 29 28 30 31 30 31 26
48 66 39 44 44 43 47 47 42 41 34 32 34 43 44 42 41 39 39 39 37 35 33 27 21 27 24 22 24 24 26 26 25 25 24 21 22 25 25 27 29 31 23 25
43 49 48 43 48 50 51 42 37 34 32 32 30 35 41 34 36 34 34 33 32 29 26 22 21 23 19 22 22 23 23 25 27 20 19 17 19 21 23 23 23 25 24 23
47 44 51 49 57 44 56 35 34 33 32 33 34 32 34 30 33 32 30 29 29 29 26 21 25 22 20 23 23 21 22 22 17 15 13 14 16 21 21 25 22 19 20 18
43 36 39 55 48 37 39 35 33 31 31 28 33 32 40 36 30 28 27 24 22 20 18 21 26 21 21 19 18 16 17 12 12 12 12 14 16 18 22 17 18 18 16 14
41 42 38 33 47 45 37 37 22 21 23 22 27 31 41 26 23 20 20 14 11 16 24 22 18 15 11 11 11 12 13 13 12 11 12 15 18 17 15 14 15 15 11 7
39 38 43 43 40 57 46 46 30 28 12 17 29 25 27 20 13 11 12 14 11 17 20 17 15 14 13 11 10 11 12 12 11 11 13 16 13 13 11 10 11 15 6 2
27 42 37 46 36 37 58 49 52 33 27 20 20 23 21 18 16 14 8 17 12 15 17 17 15 13 9 11 11 11 11 10 10 11 13 12 9 9 10 10 13 8 3 2
18 31 43 37 42 38 52 52 38 45 24 15 18 13 13 4 7 13 13 15 17 18 20 20 15 11 11 11 11 9 9 8 9 10 11 8 8 6 9 11 10 4 2 4
17 11 26 44 51 44 49 43 50 38 32 15 11 12 10 11 5 15 14 13 16 18 21 20 16 13 10 9 9 8 9 7 8 9 6 5 6 7 9 8 5 4 4 7
18 15 22 41 40 43 48 42 49 32 29 30 19 5 4 13 7 8 4 13 17 20 17 17 12 11 7 9 8 8 7 6 6 6 4 2 5 5 4 4 3 5 7 9
14 20 23 12 31 41 48 50 42 42 30 29 11 5 9 8 9 8 10 13 18 19 19 14 14 8 9 6 6 8 5 4 4 3 2 3 2 2 3 4 5 7 8 9
13 25 24 7 23 38 40 47 43 44 33 29 31 12 15 14 10 7 10 14 18 21 12 12 10 10 8 3 6 7 4 3 3 3 2 2 1 2 2 3 6 8 7 7
9 29 36 16 13 23 37 42 37 47 33 25 25 20 18 16 7 7 7 16 20 18 15 13 11 8 6 3 6 6 3 2 3 4 5 3 3 2 3 4 8 8 7 7
11 18 27 29 23 18 36 40 40 35 35 26 16 25 20 11 7 7 5 15 17 16 17 14 11 8 5 3 6 6 3 1 3 4 5 5 5 5 7 8 8 7 7 6
14 7 14 28 26 19 20 30 40 36 35 25 20 15 16 14 9 7 6 9 13 15 16 15 14 9 5 3 6 5 3 3 5 6 7 8 7 7 9 10 10 9 7 5
15 15 11 7 16 10 17 16 36 31 29 26 21 12 7 8 7 8 3 5 12 14 16 17 15 11 7 4 5 5 3 4 7 9 9 11 9 8 8 6 6 6 5 4
14 11 5 6 16 14 10 13 13 33 11 10 11 12 7 9 17 6 14 11 18 14 17 16 15 10 8 3 5 4 4 6 10 10 11 13 9 6 5 6 5 6 6 4
11 9 6 14 11 7 8 5 17 14 13 3 7 5 10 17 6 16 13 10 18 21 18 17 14 9 8 6 7 4 4 7 11 11 12 13 9 7 6 5 5 5 6 7
9 7 14 16 9 5 6 4 18 15 5 5 7 5 18 11 15 16 16 12 18 27 19 19 14 9 9 7 9 6 5 8 11 12 13 12 10 9 6 4 4 7 10 10
7 4 13 8 3 5 2 2 8 9 5 4 5 4 8 12 13 18 17 15 15 24 28 21 17 11 9 8 11 9 7 8 11 12 12 12 10 9 6 4 6 8 9 9
2 1 3 1 8 13 16 15 17 10 5 5 5 1 3 4 3 10 19 17 12 23 31 24 19 13 11 9 12 12 11 9 10 12 11 11 9 9 7 7 6 8 9 9
6 4 7 9 13 11 12 10 10 6 4 2 7 4 1 2 4 5 12 18 15 20 30 28 23 14 11 10 12 14 13 11 10 10 11 11 9 8 8 8 7 8 9 8
13 12 8 8 14 13 9 12 1 4 6 4 4 5 4 3 3 2 9 12 16 20 26 30 27 19 12 11 12 17 15 14 12 11 10 10 10 10 9 9 9 9 9 10
16 13 12 6 5 8 5 8 3 5 6 7 5 2 3 5 2 2 9 15 18 20 22 32 30 24 17 13 12 12 18 17 16 14 12 11 10 10 10 12 11 12 12 11
Wind_Direction
218 213 219 223 223 233 239 246 249 253 255 249 255 262 265 268 269 271 270 268 268 273 275 279 278 270 253 253 258 262 260 257 257 265 270 265 260 259 267 278 286 298 298 300
211 217 231 225 229 235 238 245 249 255 254 255 259 266 266 265 268 268 268 268 269 273 274 270 264 264 245 258 243 257 254 257 258 263 262 256 253 260 272 284 293 298 299 300
216 228 229 226 229 232 235 237 245 251 258 259 264 268 265 268 269 270 273 273 270 268 265 258 255 254 253 246 245 255 253 263 266 263 255 252 254 266 280 288 294 298 301 304
228 233 229 226 229 227 236 235 244 252 259 262 253 266 266 270 271 271 271 267 261 259 254 253 249 241 230 237 250 264 267 268 272 255 245 249 261 273 287 296 283 305 310 310
232 227 227 227 230 225 238 235 239 244 250 259 255 259 271 271 274 277 275 269 263 253 245 239 237 233 240 253 258 263 268 273 258 238 244 254 269 282 286 291 294 302 312 305
238 231 229 227 227 229 234 233 238 242 246 248 247 252 270 270 277 280 276 263 261 244 228 216 228 243 258 254 253 268 274 250 234 241 253 271 281 282 290 295 301 314 313 307
234 231 227 224 223 222 220 218 224 228 229 244 246 248 259 276 272 265 283 243 237 202 214 221 228 235 225 234 267 262 249 240 239 251 274 278 285 286 279 293 304 319 319 299
229 232 221 214 219 214 215 207 208 213 216 233 232 243 261 264 262 268 262 222 213 207 198 192 202 209 227 245 254 241 242 241 248 273 275 282 286 282 292 307 311 317 309 278
251 234 224 220 217 213 211 212 215 237 226 245 240 236 250 266 251 246 219 192 205 200 190 195 207 208 227 235 236 235 240 248 266 274 277 281 281 284 313 306 316 303 264 236
260 248 222 218 216 222 212 215 208 223 239 226 241 241 240 228 225 198 182 188 200 214 205 210 202 214 220 226 236 242 250 255 271 271 276 292 293 304 310 305 305 280 229 182
257 243 233 217 209 210 207 206 211 216 224 229 235 249 229 207 148 188 198 199 208 201 205 208 202 218 218 232 235 241 245 257 266 271 282 290 304 304 310 311 295 223 185 161
241 256 258 217 212 208 207 207 204 212 209 229 214 162 154 182 198 202 172 192 190 200 205 186 218 213 219 228 235 231 239 253 274 279 289 293 299 316 313 310 245 195 174 157
227 235 256 216 205 202 210 206 207 211 214 204 214 200 170 152 172 181 192 180 184 187 174 205 205 202 215 223 230 226 219 277 294 250 227 246 271 300 272 280 207 181 181 158
246 239 242 240 202 194 204 200 203 201 215 193 217 140 154 148 131 103 153 175 168 161 181 194 196 201 205 221 226 212 218 301 284 199 180 257 271 261 263 214 188 176 178 158
253 237 234 265 284 232 201 202 196 195 198 209 189 193 172 166 134 89 132 158 168 176 186 186 178 181 193 234 218 202 201 296 237 185 177 172 200 233 191 165 163 155 158 147
294 260 253 245 281 278 193 204 198 197 200 202 180 195 187 188 159 103 101 167 175 183 181 183 182 191 196 260 202 194 184 251 209 178 182 177 147 119 123 135 144 139 136 142
300 313 194 241 255 258 199 200 190 195 197 196 194 187 186 194 174 167 130 138 188 192 189 188 189 194 200 256 200 192 173 200 181 168 176 161 129 129 123 113 118 122 127 137
274 309 224 247 235 230 191 190 191 189 196 206 209 195 192 199 215 226 231 215 170 203 197 196 192 200 196 237 199 205 166 179 169 166 170 162 134 123 115 119 129 135 104 130
254 272 255 213 209 110 155 150 161 193 160 189 194 205 216 222 222 248 232 219 190 175 209 202 191 198 193 191 196 193 162 172 168 169 171 169 164 134 128 125 114 123 137 155
227 234 262 235 224 188 106 154 172 136 133 103 161 194 222 223 220 218 216 207 189 175 202 201 191 194 189 176 187 177 153 168 168 172 167 177 171 160 139 125 119 135 139 134
217 206 226 236 210 129 45 68 189 194 123 101 172 206 224 206 202 204 220 207 190 197 187 208 206 201 196 183 178 174 159 166 171 176 169 172 177 174 147 122 114 122 133 144
216 232 188 235 226 93 139 168 151 130 99 102 76 196 218 221 206 211 210 203 194 196 193 201 210 200 196 196 183 177 168 171 182 183 181 180 176 176 155 136 126 125 136 136
95 291 100 287 93 78 83 93 124 92 99 48 42 203 175 186 198 202 207 201 187 189 193 197 205 205 203 193 194 186 177 181 188 194 190 198 194 188 165 150 135 129 141 138
44 84 141 118 102 81 73 53 157 128 91 97 32 13 239 117 10 192 191 209 197 190 196 196 203 204 205 195 200 195 188 183 193 196 203 199 193 194 177 164 153 141 140 143
46 48 114 127 129 118 47 24 73 153 162 172 198 41 13 28 2 164 182 191 191 188 198 197 204 209 200 201 205 206 196 188 190 189 195 199 203 206 202 186 174 164 163 155
13 21 35 32 69 38 355 14 322 195 205 215 192 151 24 13 343 184 190 196 196 189 197 199 206 207 204 206 214 221 212 202 196 196 195 196 200 200 211 211 199 190 181 176
Height
3064 3072 3062 3047 3065 3073 3081 3085 3081 3084 3088 3090 3087 3086 3086 3091 3092 3092 3092 3090 3089 3088 3090 3089 3088 3084 3085 3086 3087 3087 3087 3086 3087 3086 3086 3085 3085 3087 3087 3085 3083 3081 3078 3075
3061 3047 3026 3067 3069 3073 3076 3078 3073 3080 3081 3083 3082 3078 3079 3082 3082 3081 3081 3080 3081 3081 3080 3081 3082 3075 3078 3079 3081 3081 3081 3081 3081 3081 3080 3080 3081 3082 3082 3079 3076 3075 3073 3070
3041 3018 3058 3058 3062 3065 3065 3067 3074 3073 3077 3077 3079 3070 3070 3073 3072 3071 3070 3070 3070 3070 3070 3073 3074 3070 3072 3073 3075 3076 3076 3076 3075 3075 3075 3076 3077 3077 3077 3074 3071 3070 3068 3064
3033 3037 3041 3048 3049 3055 3054 3065 3070 3072 3073 3070 3076 3056 3060 3064 3062 3063 3062 3062 3061 3062 3063 3066 3069 3066 3067 3069 3070 3071 3071 3070 3070 3070 3071 3073 3074 3074 3071 3070 3068 3064 3062 3059
3013 3028 3031 3038 3029 3053 3038 3064 3065 3067 3067 3069 3066 3062 3052 3056 3053 3054 3053 3052 3051 3053 3056 3060 3061 3061 3063 3064 3065 3066 3065 3065 3066 3066 3068 3070 3070 3068 3067 3065 3063 3061 3058 3055
3014 3022 3025 3023 3037 3043 3052 3057 3059 3061 3062 3055 3057 3057 3043 3047 3048 3045 3044 3044 3045 3047 3051 3054 3054 3057 3058 3059 3061 3061 3061 3062 3063 3064 3065 3066 3066 3065 3062 3061 3058 3057 3054 3052
3009 3011 3015 3022 3029 3035 3041 3048 3051 3054 3049 3036 3050 3049 3034 3040 3042 3040 3040 3040 3041 3041 3043 3048 3051 3053 3055 3056 3057 3058 3059 3060 3060 3061 3062 3061 3062 3060 3059 3057 3055 3054 3051 3049
3001 3004 3005 3007 3011 3018 3026 3032 3028 3031 3031 3035 3040 3034 3033 3035 3035 3036 3036 3038 3038 3039 3042 3045 3048 3050 3052 3053 3054 3055 3056 3057 3058 3059 3059 3058 3058 3055 3055 3054 3053 3051 3049 3049
2993 2991 2998 3002 3008 3013 3013 3020 3021 3029 3026 3026 3022 3024 3031 3029 3029 3032 3033 3036 3039 3038 3041 3043 3046 3048 3050 3051 3052 3053 3054 3055 3056 3056 3055 3055 3054 3053 3052 3052 3051 3049 3048 3048
2994 2988 2988 2993 3005 3003 3005 3013 3027 3024 3020 3018 3021 3019 3024 3025 3025 3029 3033 3035 3038 3036 3039 3042 3045 3047 3048 3049 3050 3050 3052 3053 3053 3053 3052 3052 3051 3050 3050 3050 3050 3049 3048 3049
2990 2990 2984 2988 2983 2991 2996 3002 3011 3020 3018 3015 3018 3019 3020 3023 3024 3028 3031 3033 3033 3035 3037 3040 3043 3045 3046 3047 3048 3049 3050 3050 3050 3050 3050 3049 3048 3049 3048 3048 3048 3048 3049 3049
2989 2985 2979 2976 2979 2988 2993 2997 3005 3004 3010 3015 3013 3017 3021 3021 3025 3026 3029 3030 3031 3034 3036 3040 3042 3044 3044 3046 3047 3048 3048 3048 3048 3048 3048 3048 3048 3048 3048 3048 3048 3048 3049 3050
2985 2979 2976 2974 2973 2980 2982 2991 2999 3008 3009 3013 3010 3016 3020 3020 3025 3027 3029 3030 3030 3032 3037 3039 3041 3042 3043 3044 3045 3046 3046 3046 3047 3047 3047 3047 3047 3047 3047 3048 3048 3048 3050 3051
2982 2978 2969 2965 2969 2974 2975 2983 2990 3000 3003 3007 3011 3014 3018 3022 3025 3026 3026 3028 3030 3034 3036 3038 3040 3041 3042 3042 3044 3045 3045 3046 3046 3046 3046 3047 3047 3047 3047 3047 3048 3049 3051 3052
2978 2973 2967 2971 2968 2969 2975 2978 2983 2991 2999 3001 3008 3012 3017 3021 3024 3025 3025 3028 3032 3034 3035 3037 3039 3040 3041 3042 3043 3044 3044 3045 3046 3046 3047 3047 3047 3047 3048 3048 3049 3050 3051 3053
2974 2971 2967 2972 2973 2965 2966 2975 2983 2990 2998 3002 3005 3012 3015 3019 3024 3026 3027 3029 3032 3035 3037 3037 3038 3039 3040 3042 3043 3043 3044 3044 3046 3046 3046 3047 3048 3049 3049 3049 3050 3051 3052 3054
2973 2975 2977 2975 2975 2969 2967 2968 2977 2988 2996 3001 3005 3012 3015 3019 3022 3021 3025 3029 3034 3036 3037 3037 3038 3039 3040 3041 3042 3043 3043 3045 3045 3046 3047 3048 3050 3051 3051 3051 3052 3053 3054 3055
2974 2971 2976 2971 2975 2971 2967 2971 2977 2985 2995 3001 3005 3011 3012 3013 3018 3020 3023 3027 3030 3036 3037 3037 3038 3039 3040 3041 3042 3043 3043 3045 3046 3047 3048 3050 3051 3052 3053 3054 3055 3055 3056 3056
2974 2974 2976 2972 2973 2967 2969 2972 2976 2983 2990 2994 3001 3006 3007 3010 3014 3019 3019 3022 3025 3031 3035 3035 3037 3038 3039 3040 3042 3043 3043 3045 3047 3048 3050 3051 3053 3054 3055 3056 3056 3057 3058 3058
2972 2972 2972 2972 2970 2970 2972 2974 2976 2979 2991 2994 2998 3001 3003 3008 3016 3015 3017 3020 3023 3027 3034 3034 3035 3037 3038 3039 3042 3043 3044 3046 3048 3049 3051 3053 3054 3055 3056 3057 3057 3058 3059 3059
2969 2972 2971 2972 2965 2970 2969 2976 2979 2987 2996 2993 2995 2998 3001 3005 3008 3011 3014 3018 3021 3025 3032 3032 3034 3036 3038 3039 3041 3043 3045 3047 3049 3051 3052 3053 3054 3056 3057 3058 3058 3059 3059 3060
2971 2970 2972 2970 2967 2972 2970 2975 2980 2986 2989 2991 2994 2995 2998 3002 3006 3008 3011 3015 3018 3022 3027 3030 3033 3035 3037 3039 3041 3043 3045 3047 3050 3052 3053 3055 3056 3057 3058 3059 3060 3061 3061 3062
2974 2972 2971 2977 2976 2972 2974 2977 2977 2984 2988 2989 2993 2994 2996 2999 3002 3004 3009 3012 3016 3020 3025 3029 3032 3034 3037 3038 3041 3043 3044 3047 3050 3052 3054 3055 3057 3058 3060 3061 3062 3063 3064 3065
2973 2972 2972 2974 2974 2975 2977 2977 2979 2981 2985 2987 2991 2993 2994 2996 2999 3001 3005 3010 3014 3017 3022 3027 3030 3032 3035 3038 3040 3043 3044 3047 3050 3052 3054 3056 3058 3059 3061 3062 3064 3065 3066 3067
2976 2975 2974 2976 2975 2975 2979 2981 2980 2981 2983 2985 2987 2990 2992 2994 2997 2998 3002 3006 3011 3015 3020 3024 3028 3031 3034 3037 3039 3041 3044 3046 3049 3052 3054 3056 3058 3060 3061 3063 3065 3066 3068 3069
2979 2977 2977 2977 2978 2979 2980 2982 2980 2981 2982 2985 2987 2989 2991 2993 2995 2996 2998 3002 3007 3012 3016 3021 3025 3030 3033 3036 3038 3040 3043 3046 3048 3051 3053 3056 3058 3060 3062 3063 3065 3066 3068 3071